Orbital elements:
2020 YO3                                                 Earth MOID = 0.0010 AU
Epoch 2023 Sept. 13.0 TT = JDT 2460200.5                Veres                   
M 340.14347              (2000.0)            P               Q                  
n   0.32879861     Peri.  296.05399     +0.87693972     -0.45148995             
a   2.0789756      Node    91.17134     +0.47838631     +0.78716587             
e   0.6276157      Incl.    9.48312     +0.04607892     +0.42015083             
P   3.00           H   24.73          G   0.15           U   0                  
Residuals in seconds of arc
201223 381  1.2+  0.2+    201224 658  1.9+  1.1-    231224 T05  0.2+  0.1-
201223 381  1.0+  0.8+    201224 658  1.6+  1.5-    231224 T05  0.0   0.0
201223 381  0.4+  0.0     201224 204  0.1+  0.1-    231224 T05  0.0   0.4+
201223 381  1.7+  0.3+    201224 204  0.1-  0.3-    231224 T05  0.1-  0.1-
201223 381  1.1+  0.5-    201224 204  0.0   0.2-    231224 T05  0.1-  0.3+
201223 381  0.3+  0.5-    201224 204  0.1+  0.1-    231224 T05  0.1-  0.4+
201223 381  0.2+  0.1-    201224 204  0.1+  0.4-    231224 T05  0.1-  0.2+
201223 381  1.4+  0.3-    201224 K62  0.1+  0.2-    231224 900  0.1+  0.1+
201223 381  1.1+  0.2-    201224 K62  0.2+  0.7-    231224 900  0.2+  0.3+
201223 381  1.2+  0.2+    201224 K62  0.3-  0.0     231224 900  0.3+  0.7-
201223 381  1.4+  0.4+    201224 K62  0.1+  0.4-    231224 900  0.0   0.3+
201223 381  0.8+  0.2-    201224 J95  0.1-  0.2-    231224 900  0.0   0.2+
201223 381  0.3+  0.6-    201224 J95  0.2+  0.4-    231224 900  0.1+  0.2+
201223 381  0.8+  0.3+    201224 J95  0.1-  0.5-    231224 C97  0.3-  0.1+
201224 X31  1.1+  0.1+    201224 J95  0.0   0.3-    231224 C97  0.7+  0.0
201224 X31  0.7+  0.6-    201224 Z80  0.4-  0.3-    231224 C97  0.1+  0.3+
201224 X31  1.1+  0.2-    201224 Z80  0.2-  0.4-    231224 C97  0.3-  0.1-
201224 X31  0.8+  0.5-    201224 Z80  0.6-  0.4-    231224 C40  0.1-  0.3+
201224 X31  0.9+  0.2-    201224 J95  0.2+  0.2-    231224 C40  0.3-  0.7+
201224 X31  0.9+  0.1+    201224 J95  0.0   0.2-    231224 C40  0.1-  0.7+
201224 X31  1.4+  0.3+    201224 J95  0.0   0.3-    231224 L06  0.2-  0.0
201224 X31  0.6+  0.1+    201225 T05  0.0   0.2-    231224 L06  0.0   0.1+
201224 X31  0.8+  0.4-    201225 T05  1.0-  0.5-    231224 L06  0.4+  0.4-
201224 X31  1.0+  0.0     201225 T05  0.1-  0.1-    231224 L06  0.4+  0.2-
201224 X31  1.0+  0.2-    201225 T05  0.2+  0.1-    231224 C40  0.1-  0.5+
201224 H06  0.8+  0.7-    201225 T05  0.5+  0.3+    231224 C40  0.1+  0.2+
201224 H06  0.5+  0.4-    201225 T05  0.1-  0.1+    231224 C40  0.3-  0.6+
201224 H06  0.6+  0.7-    201225 T08  0.1+  0.2-    231224 C40  0.1-  0.4+
201224 H06  0.6+  0.2-    201225 T05  0.4+  0.2-    231224 C40  0.2-  0.5+
201224 I52  0.0   0.6-    201225 T05  0.3-  0.3-    231224 C40  0.3-  0.4+
201224 I52  0.2+  0.6-    201225 T08  0.0   0.2-    231224 203  0.2-  0.1+
201224 I52  0.2+  0.3-    201225 T05  0.3-  0.1-    231224 203  0.1-  0.1+
201224 I52  0.4-  0.6-    201225 T08  0.1+  0.3-    231224 203  0.0   0.3+
201224 718  0.6+  0.1-    201225 T05  0.5+  0.2-    231224 K38  0.0   0.1+
201224 718  0.9+  0.5-    201225 T08  0.1+  0.0     231224 K38  0.0   0.0
201224 718  0.5+  0.5-    201226 T08  0.2+  0.1+    231224 203  0.0   0.0
201224 718  0.4+  0.3-    201226 T08  0.2-  0.2+    231224 K38  0.3-  0.1-
201224 718  0.4+  0.2-    201226 T08  0.1-  0.7-    231224 K38  0.1+  0.2+
201224 718  0.3-  0.7-    201226 T08  0.3+  0.2+    231224 203  0.0   0.2+
201224 718  0.3+  0.6-    201227 I52  0.0   0.2-    231224 K38  0.1+  0.0
201224 718  0.4+  0.7+    201227 I52  0.6-  0.3+    231224 203  0.1-  0.2+
201224 U55  0.3+  0.9-    201227 I52  0.2+  0.5-    231225 L01  0.3-  0.0
201224 U55  0.4-  0.4-    210102 I52  0.0   0.1-    231225 L01  0.5-  0.1+
201224 U55  0.8+  0.7-    210102 I52  0.1+  0.4+    231225 L01  0.5-  0.0
201224 T05  0.6+  0.0     210102 I52  0.0   0.4+    231225 L01  0.3-  0.1-
201224 T05  0.2+  0.3-    210103 291  0.3+  0.2-    231225 L01  0.5-  0.1-
201224 T05  0.6+  0.2-    210103 291  0.3+  0.2+    231225 L01  0.4-  0.1-
201224 T05  1.1-  1.0-    210103 291  0.1-  0.3-    231225 L01  0.3-  0.2+
201224 T05  0.2-  0.7-    210105 291  0.3+  0.3-    231225 U94  0.8+  0.4+
201224 T05  0.2-  0.2-    210105 291  0.1-  0.3+    231225 U94  0.1-  0.4+
201224 T05  0.8+  0.3+    210108 V06  0.2-  0.1-    231225 U94  0.3-  0.4+
201224 T05  0.0   0.2-    210108 V06  0.2+  0.5+    231225 U94  0.1-  0.2+
201224 658  2.3+  1.7-    210108 V06  0.1-  0.1-    231225 900  0.6+  0.5+
201224 658  2.0+  1.5-    231224 T05  0.1+  0.0     231225 900  0.2-  0.2+
201224 658  1.8+  1.2-    231224 T05  0.0   0.1-    231225 900  0.2-  0.1+

Ephemeris:
2020 YO3                 a,e,i = 2.08, 0.63, 9                   q = 0.7742
Date    TT    R. A. (2000) Decl.     Delta      r    Elong.  Phase     V
2023 11 25    18 48 18.8 -41 07 58   0.2785  0.7982    41.0   125.8    26.8
...
2023 12 10    19 02 46.6 -42 53 36   0.1253  0.8806    31.6   144.1    27.4
...
2023 12 18    19 04 53.1 -44 17 59   0.04840 0.9413    27.2   151.5    26.7
...
2023 12 24    07 10 16.0 +33 40 50   0.0084970.9917   162.7    17.1    15.3
2023 12 25    07 08 03.4 +38 49 10   0.01788 1.0004   160.4    19.2    17.0
2023 12 26    07 07 16.6 +40 24 30   0.02731 1.0092   159.8    19.7    17.9
...
2024 01 01    07 05 47.6 +42 17 21   0.08437 1.0631   160.2    18.3    20.4
...
2024 01 09    07 04 50.5 +42 16 45   0.1628  1.1375   159.8    17.4    22.0
...
2024 01 24    07 06 25.5 +41 01 42   0.3228  1.2805   153.1    20.3    23.8

A. U. Tomatic                (C) Copyright 2023 MPC           M.P.E.C. 2023-Y84





More information about the Iaude mailing list